Location: Boca do Mato
(22.9085°S, 43.2930°W)
Time: 22:33:45
(UTC+00:00)

Cosmos 2227 Rocket - Pass Details

Date: 14 July 2020
Orbit: 839 x 845 km, 71.0° (Epoch: 10 August)

Event Time Altitude Azimuth Distance (km) Brightness Sun altitude
Exits shadow 08:50:24 12° 237° (WSW) 2,344 3.9 -10.1°
Maximum altitude 08:54:06 21° 281° (W) 1,795 3.4 -9.3°
Drops below altitude 10° 08:58:16 10° 329° (NNW) 2,455 4.5 -8.4°
Sets 09:01:15 0° 344° (NNW) 3,383 5.4 -7.8°
